Showing default

GAOFEN 3, 41727

Orbit data source: Space-Track

GAOFEN 3, 41727 is a payload satellite owned by GWHYZ (CN) in SSO that was launched on Tue, 09 Aug 2016 UTC via a CHANG ZHENG 4C launch vehicle from the Taiyaun Space Center, China (TSC). Payload-class satellites include a variety of spacecraft equipped with specific instruments for various scientific and technological missions. These include communications satellites like Starlink; space stations such as the ISS; scientific satellites like the Hubble; Earth observation satellites from companies like Planet Labs, Umbra, and HawkEye 360; GPS; miniature CubeSats for education and research; and military/defense satellites.

Loading next visibility...
Identifier
41727, 2016-049A
Orbit
SSO
Last TLE update
9 hours ago
Origin
Manufacturer
CAST
Mission
Operational Civil Radar Imaging
Bus & Motor
CS-L3000B, Unknown motor
Mass
~2,779 kg wet, ~2,500 kg dry
Launch date (UTC)
2016-08-09 (9 years ago)
Launch vehicle
CHANG ZHENG 4C
Launch site
Taiyaun Space Center, China (TSC)
Object type
Payload
Rocket body
Debris
Shape & HBR
Box + 3 Pan, 8 m
Radar Cross Section
10.846 m², Large (>1 m²)

Expand to show TLE details & history

TLE from 9 hours ago
0 GAOFEN 3
1 41727U 16049A   25181.89367048  .00000000  00000-0  13324-4 0  9990
2 41727  98.4027 189.9346 0001822 106.8167 253.3223 14.42216892468002
Epoch: 2025-06-30T21:26Z
TLE epoch observation values (Epoch: 2025-06-30T21:26:53.129Z)
Latitude
0.00001°
Longitude
-50.98371°
Altitude
754.511 km
Speed
7.477 km/s
True Right ascension
12h 39m 44s
True Declination
0° 00' 00"
Sunlit
Object was in daylight at epoch
Visualization orbit readout
Latitude
79.21332°
Longitude
-101.08763°
Altitude
763.246 km
Speed
7.48 km/s
Apparent Right ascension
06h 29m 42s
Apparent Declination
26° 43' 34"
Sunlit
Object is in daylight
Visualization observer readout
Local Sidereal Time
17:47:11
Azimuth
349.715° N
Elevation
-22.626°
Doppler factor
1
Orbital elements
Apogee altitude
749.596 km
Perigee altitude
746.999 km
Semi-major axis
7,126.435 km
Eccentricity
0.00018
Inclination
98.4027°
RAAN
189.9346°
Arg. of periapsis
106.8167°
True anomaly
Unknown
Mean anomaly
253.3223°
Eccentric anomaly
Unknown
Mean motion
3.60774 °/min
Orbital period
99.79 mins
BSTAR
0.000013324
Loading maneuver chart data...
Loading SW <> Apogee altitude chart data...
Loading historical data...
Loading historical data...
Loading historical data...
Loading historical data...
Loading historical data...
Loading historical data...
Loading historical data...
Other satellites on launch #49 in the year 2016 (2016-08-09 UTC)

GAOFEN 3 Visibility forecast

Observer location: undefined°, undefined°

Span
Click to sort rows by Start time (UTC) header in descending order
Start Az.
Max El. time (UTC)
Max El. Az.
Max El.
End time (UTC)
End Az.
9 mins2025-07-01 13:00:26.407Z25.484° NE2025-07-01 13:05:26.407Z117.131° SE36.398°2025-07-01 13:09:26.407Z173.346° S
5 mins2025-07-01 14:41:26.407Z323.666° NNW2025-07-01 14:43:26.407Z293.939° NW18.217°2025-07-01 14:46:26.407Z254.508° W
8 mins2025-07-02 00:13:26.407Z147.28° SSE2025-07-02 00:16:26.407Z94.116° ESE40.363°2025-07-02 00:21:26.407Z355.078° N
4 mins2025-07-02 01:54:26.407Z249.762° W2025-07-02 01:55:26.407Z262.839° W14.027°2025-07-02 01:58:26.407Z300.634° NW
|